Weather History for KPTV - August, 2013

Change the Weather History Date:

Tuesday, August 20, 2013

  Actual Average (WUND) Record (WUND)
Temperature  
Mean Temperature 84 °F -  
Max Temperature 98 °F - - (-1)
Min Temperature 71 °F - - (-1)
Cooling Degree Days 20    
Growing Degree Days 34 (Base 50)    
Moisture  
Dew Point 45 °F    
Average Humidity 25    
Maximum Humidity 34    
Minimum Humidity 19    
Precipitation  
Precipitation 0.00 in - - ()
Sea Level Pressure  
Sea Level Pressure 29.81 in    
Wind  
Wind Speed 7 mph (SSW)    
Max Wind Speed 12 mph    
Max Gust Speed -    
Visibility 10 miles    
Events      
Averages and records for this station are not official NWS values.
T = Trace of Precipitation, MM = Missing Value Source: NWS Daily Summary

Daily Weather History Graph

Daily Weather History Graph

Search for Another Location

Airport or City:

Trip Planner

Search our weather history database for the weather conditions in past years. The results will help you decide how hot, cold, wet, or windy it might be!

Date:

Astronomy

Aug. 20, 2013 Rise Set
Actual Time 6:18 AM PDT 7:39 PM PDT
Civil Twilight 5:52 AM PDT 8:06 PM PDT
Nautical Twilight 5:19 AM PDT 8:38 PM PDT
Astronomical Twilight 4:46 AM PDT 9:11 PM PDT
Moon 7:16 PM PDT (8/20) 5:53 AM PDT (8/20)
Length of Visible Light 14h 14m
Length of Day
13h 20m
Full, 100% of the Moon is Illuminated
Aug 20
Full
Aug 20
Full
Aug 28
Last Quarter
Sep 5
New
Sep 12
First Quarter

Hourly Weather History & Observations

Time (PDT) Temp. Heat Index Dew Point Humidity Pressure Visibility Wind Dir Wind Speed Gust Speed Precip Events Conditions
12:15 AM 78.8 °F - 44.6 °F 30% 29.81 in 10.0 mi South 5.8 mph - N/A   Clear
12:35 AM 75.2 °F - 44.6 °F 34% 29.82 in 10.0 mi SE 6.9 mph - N/A   Clear
12:55 AM 75.2 °F - 42.8 °F 31% 29.82 in 10.0 mi SE 9.2 mph - N/A   Clear
1:15 AM 75.2 °F - 42.8 °F 31% 29.82 in 10.0 mi SE 6.9 mph - N/A   Clear
1:35 AM 75.2 °F - 42.8 °F 31% 29.82 in 10.0 mi SSE 6.9 mph - N/A   Clear
1:55 AM 75.2 °F - 41.0 °F 29% 29.81 in 10.0 mi SE 9.2 mph - N/A   Clear
2:15 AM 75.2 °F - 41.0 °F 29% 29.81 in 10.0 mi SE 9.2 mph - N/A   Clear
2:35 AM 73.4 °F - 39.2 °F 29% 29.81 in 10.0 mi SSE 8.1 mph - N/A   Clear
2:55 AM 73.4 °F - 39.2 °F 29% 29.81 in 10.0 mi SE 8.1 mph - N/A   Clear
3:15 AM 73.4 °F - 39.2 °F 29% 29.81 in 10.0 mi SSE 10.4 mph - N/A   Clear
3:35 AM 73.4 °F - 37.4 °F 27% 29.81 in 10.0 mi SSE 8.1 mph - N/A   Clear
3:55 AM 75.2 °F - 37.4 °F 25% 29.81 in 10.0 mi SSE 8.1 mph - N/A   Clear
4:15 AM 73.4 °F - 37.4 °F 27% 29.81 in 10.0 mi SSE 9.2 mph - N/A   Clear
4:35 AM 73.4 °F - 37.4 °F 27% 29.82 in 10.0 mi SSE 9.2 mph - N/A   Clear
4:55 AM 71.6 °F - 37.4 °F 29% 29.82 in 10.0 mi SSE 8.1 mph - N/A   Clear
5:15 AM 71.6 °F - 35.6 °F 27% 29.82 in 10.0 mi South 9.2 mph - N/A   Clear
5:35 AM 71.6 °F - 37.4 °F 29% 29.83 in 10.0 mi SE 5.8 mph - N/A   Clear
5:55 AM 71.6 °F - 37.4 °F 29% 29.83 in 10.0 mi SE 5.8 mph - N/A   Clear
6:15 AM 73.4 °F - 37.4 °F 27% 29.84 in 10.0 mi East 5.8 mph - N/A   Clear
6:35 AM 75.2 °F - 37.4 °F 25% 29.84 in 10.0 mi East 5.8 mph - N/A   Clear
6:55 AM 73.4 °F - 37.4 °F 27% 29.84 in 10.0 mi East 4.6 mph - N/A   Clear
7:15 AM 77.0 °F - 37.4 °F 24% 29.84 in 10.0 mi ESE 3.5 mph - N/A   Clear
7:35 AM 78.8 °F - 39.2 °F 24% 29.85 in 10.0 mi Calm Calm - N/A   Clear
7:55 AM 80.6 °F - 39.2 °F 23% 29.85 in 5.0 mi SSE 4.6 mph - N/A   Clear
8:15 AM 82.4 °F - 39.2 °F 21% 29.86 in 10.0 mi SSW 6.9 mph - N/A   Clear
8:35 AM 82.4 °F - 39.2 °F 21% 29.86 in 10.0 mi SSW 6.9 mph - N/A   Clear
8:55 AM 82.4 °F - 42.8 °F 25% 29.86 in 10.0 mi SSW 6.9 mph - N/A   Clear
9:15 AM 82.4 °F - 46.4 °F 28% 29.86 in 10.0 mi SSW 5.8 mph - N/A   Clear
9:35 AM 84.2 °F - 46.4 °F 27% 29.87 in 10.0 mi South 4.6 mph - N/A   Clear
9:55 AM 84.2 °F - 48.2 °F 29% 29.87 in 10.0 mi South 5.8 mph - N/A   Clear
10:15 AM 86.0 °F - 48.2 °F 27% 29.87 in 10.0 mi WSW 5.8 mph - N/A   Clear
10:35 AM 87.8 °F - 48.2 °F 25% 29.87 in 10.0 mi WSW 4.6 mph - N/A   Clear
10:55 AM 87.8 °F - 50.0 °F 27% 29.86 in 10.0 mi SSW 5.8 mph - N/A   Clear
11:15 AM 89.6 °F - 50.0 °F 26% 29.86 in 10.0 mi SSW 5.8 mph - N/A   Clear
11:35 AM 89.6 °F - 50.0 °F 26% 29.86 in 10.0 mi SW 5.8 mph - N/A   Clear
11:55 AM 91.4 °F - 51.8 °F 26% 29.85 in 10.0 mi SW 6.9 mph - N/A   Clear
12:15 PM 91.4 °F - 51.8 °F 26% 29.85 in 10.0 mi West 6.9 mph - N/A   Clear
12:35 PM 91.4 °F - 51.8 °F 26% 29.84 in 10.0 mi NW 5.8 mph - N/A   Clear
12:55 PM 93.2 °F - 51.8 °F 24% 29.83 in 10.0 mi WNW 8.1 mph - N/A   Clear
1:15 PM 93.2 °F - 51.8 °F 24% 29.83 in 10.0 mi WNW 4.6 mph - N/A   Clear
1:35 PM 93.2 °F 90.8 °F 53.6 °F 26% 29.82 in 10.0 mi WNW 5.8 mph - N/A   Clear
1:55 PM 93.2 °F - 51.8 °F 24% 29.81 in 10.0 mi WNW 4.6 mph - N/A   Clear
2:15 PM 96.8 °F 94.4 °F 53.6 °F 23% 29.80 in 10.0 mi NW 8.1 mph - N/A   Clear
2:35 PM 96.8 °F 94.4 °F 53.6 °F 23% 29.80 in 10.0 mi West 8.1 mph - N/A   Clear
2:55 PM 98.6 °F - 51.8 °F 21% 29.79 in 10.0 mi West 9.2 mph - N/A   Clear
3:15 PM 98.6 °F - 51.8 °F 21% 29.78 in 10.0 mi West 8.1 mph - N/A   Clear
3:35 PM 98.6 °F - 50.0 °F 19% 29.77 in 10.0 mi WNW 5.8 mph - N/A   Clear
3:55 PM 98.6 °F - 51.8 °F 21% 29.76 in 10.0 mi WNW 6.9 mph - N/A   Clear
4:15 PM 98.6 °F - 51.8 °F 21% 29.75 in 10.0 mi WNW 8.1 mph - N/A   Clear
4:35 PM 98.6 °F 96.4 °F 53.6 °F 22% 29.75 in 10.0 mi NW 10.4 mph - N/A   Clear
4:55 PM 98.6 °F 96.4 °F 53.6 °F 22% 29.75 in 10.0 mi WNW 9.2 mph - N/A   Clear
5:15 PM 98.6 °F 96.4 °F 53.6 °F 22% 29.75 in 10.0 mi NW 9.2 mph - N/A   Clear
5:35 PM 98.6 °F 96.4 °F 53.6 °F 22% 29.74 in 10.0 mi WNW 9.2 mph - N/A   Clear
5:55 PM 98.6 °F - 51.8 °F 21% 29.74 in 10.0 mi NW 9.2 mph - N/A   Clear
6:15 PM 98.6 °F - 51.8 °F 21% 29.74 in 10.0 mi NW 6.9 mph - N/A   Clear
6:35 PM 98.6 °F 96.4 °F 53.6 °F 22% 29.74 in 10.0 mi WNW 5.8 mph - N/A   Clear
6:55 PM 98.6 °F - 51.8 °F 21% 29.74 in 10.0 mi NNW 6.9 mph - N/A   Clear
7:15 PM 96.8 °F - 51.8 °F 22% 29.75 in 10.0 mi NNW 4.6 mph - N/A   Clear
7:35 PM 95.0 °F - 50.0 °F 22% 29.75 in 10.0 mi North 4.6 mph - N/A   Clear
7:55 PM 93.2 °F - 51.8 °F 24% 29.76 in 10.0 mi Calm Calm - N/A   Clear
8:15 PM 89.6 °F - 50.0 °F 26% 29.76 in 10.0 mi Calm Calm - N/A   Clear
8:35 PM 87.8 °F - 51.8 °F 29% 29.77 in 10.0 mi Calm Calm - N/A   Clear
8:55 PM 84.2 °F - 42.8 °F 23% 29.78 in 10.0 mi SW 11.5 mph - N/A   Clear
9:35 PM 80.6 °F - 39.2 °F 23% 29.80 in 10.0 mi SW 8.1 mph - N/A   Clear
9:55 PM 80.6 °F - 39.2 °F 23% 29.81 in 10.0 mi SE 4.6 mph - N/A   Clear
10:15 PM 78.8 °F - 39.2 °F 24% 29.82 in 10.0 mi SE 8.1 mph - N/A   Clear
10:35 PM 78.8 °F - 37.4 °F 23% 29.83 in 10.0 mi SE 8.1 mph - N/A   Clear
10:55 PM 78.8 °F - 37.4 °F 23% 29.84 in 10.0 mi SSE 9.2 mph - N/A   Clear
11:15 PM 77.0 °F - 37.4 °F 24% 29.84 in 10.0 mi South 6.9 mph - N/A   Clear
11:35 PM 77.0 °F - 37.4 °F 24% 29.84 in 10.0 mi South 4.6 mph - N/A   Clear
11:55 PM 75.2 °F - 37.4 °F 25% 29.84 in 10.0 mi South 5.8 mph - N/A   Clear